EW4443 Weather Reports


time (UTC)temp
F
wind
direction
speed
knots
gust
knots
rain 1hr
in
rain 24hr
in
rain mn
in
humidity
%
barometer
mb
20260831135720 80 293 0.9 5.2 0.00 0.18 0.00 70 1013.3
20260831134949 80 270 0.9 4.3 0.00 0.18 0.00 69 1013.3
20260831134449 80 315 0.9 4.3 0.00 0.18 0.00 68 1012.8
20260831133952 80 248 0.9 5.2 0.00 0.18 0.00 66 1012.8
20260831133450 80 158 0.9 5.2 0.00 0.18 0.00 65 1012.5
20260831132950 80 180 0.9 8.7 0.00 0.18 0.00 65 1012.8
20260831132449 80 180 1.7 8.7 0.00 0.18 0.00 63 1012.5
20260831131950 80 293 0.9 4.3 0.00 0.18 0.00 63 1012.5
20260831131448 80 180 0.9 4.3 0.00 0.18 0.00 63 1012.1
20260831130949 80 225 0.9 4.3 0.00 0.18 0.00 63 1012.1
20260831130452 80 180 0.0 3.5 0.00 0.18 0.00 63 1012.1
20260831130448 80 203 0.0 3.5 0.00 0.18 0.00 63 1012.1
20260831125450 80 248 0.9 4.3 0.00 0.18 0.00 65 1012.1
20260831125221 80 203 0.9 3.5 0.00 0.18 0.00 65 1011.8
20260831124450 80 158 0.9 6.1 0.00 0.18 0.00 65 1012.1
20260831123949 80 180 1.7 6.1 0.00 0.18 0.00 66 1012.1
20260831123449 80 203 0.9 4.3 0.00 0.18 0.00 68 1011.8
20260831123218 80 225 0.9 3.5 0.00 0.18 0.00 66 1011.8
20260831122448 80 158 0.9 3.5 0.00 0.18 0.00 66 1011.8
20260831121948 80 180 0.0 3.5 0.00 0.18 0.00 65 1011.8
20260831121719 80 158 0.9 3.5 0.00 0.18 0.00 65 1011.8
20260831120949 80 158 0.9 4.3 0.00 0.18 0.00 65 1011.5
20260831120449 80 180 0.9 4.3 0.00 0.18 0.00 65 1011.5
20260831115949 80 158 0.0 3.5 0.00 0.18 0.00 66 1011.5
20260831115449 80 225 0.9 4.3 0.00 0.18 0.00 66 1011.1
20260831115220 80 225 0.9 4.3 0.00 0.18 0.00 66 1011.1
20260831114448 80 158 0.9 4.3 0.00 0.18 0.00 66 1011.5
20260831113948 80 158 0.9 1.7 0.00 0.18 0.00 65 1011.1
20260831113448 80 158 0.0 1.7 0.00 0.18 0.00 65 1011.1
20260831112948 80 180 0.0 0.0 0.00 0.18 0.00 65 1010.8
20260831112449 80 23 0.0 0.0 0.00 0.18 0.00 65 1010.8
20260831111949 80 158 0.0 0.9 0.00 0.18 0.00 65 1010.5
20260831111450 80 45 0.0 0.9 0.00 0.18 0.00 65 1010.5
20260831110949 80 248 0.0 1.7 0.00 0.18 0.00 63 1010.8
20260831110449 80 23 0.0 4.3 0.00 0.18 0.00 65 1010.8
20260831110219 80 315 0.9 4.3 0.00 0.18 0.00 65 1010.8
20260831105447 80 0 0.0 4.3 0.00 0.18 0.00 65 1010.8
20260831104948 80 113 0.0 0.0 0.00 0.18 0.00 65 1010.5
20260831104718 80 180 0.0 0.0 0.00 0.18 0.00 65 1010.5
20260831103953 80 23 0.0 0.0 0.00 0.18 0.00 65 1010.0
20260831103949 80 338 0.0 0.0 0.00 0.18 0.00 65 1010.5
20260831103221 80 45 0.0 0.0 0.00 0.18 0.00 66 1009.7
20260831102449 80 45 0.0 1.7 0.00 0.18 0.00 65 1009.7
20260831101719 80 23 0.0 1.7 0.00 0.18 0.00 65 1009.3
20260831100947 79 45 0.0 1.7 0.00 0.18 0.00 66 1009.3
20260831100452 79 90 0.0 0.9 0.00 0.18 0.00 65 1009.7
20260831100448 79 23 0.0 0.9 0.00 0.18 0.00 65 1009.7
20260831095448 79 68 0.0 0.9 0.00 0.18 0.00 66 1010.0
20260831095219 79 45 0.0 2.6 0.00 0.18 0.00 66 1009.3
20260831094449 79 45 0.0 2.6 0.00 0.18 0.00 66 1010.0
20260831093949 79 248 0.0 3.5 0.00 0.18 0.00 66 1010.0
20260831093448 79 90 0.0 3.5 0.00 0.18 0.00 66 1010.0
20260831092949 79 68 0.0 5.2 0.00 0.18 0.00 68 1010.0
20260831092447 79 23 0.9 5.2 0.00 0.18 0.00 68 1010.0
20260831091947 79 90 0.9 4.3 0.00 0.18 0.00 68 1010.0
20260831091447 79 90 0.9 4.3 0.00 0.18 0.00 68 1010.5
20260831090948 79 23 0.9 5.2 0.00 0.18 0.00 66 1010.5
20260831090448 79 0 1.7 6.1 0.00 0.18 0.00 66 1010.5
20260831090220 79 68 1.7 9.6 0.00 0.18 0.00 66 1010.5
20260831085450 79 45 1.7 10.4 0.00 0.18 0.00 66 1010.5
20260831084949 79 0 1.7 10.4 0.00 0.18 0.00 68 1010.5
20260831084720 79 45 1.7 8.7 0.00 0.18 0.00 68 1010.5
20260831083947 79 113 0.9 7.0 0.00 0.18 0.00 69 1010.5
20260831083447 79 23 1.7 7.0 0.00 0.18 0.00 68 1010.5
20260831082947 80 45 1.7 7.8 0.00 0.18 0.00 68 1010.5
20260831082448 80 23 1.7 12.2 0.00 0.18 0.00 68 1010.8
20260831081948 80 23 2.6 12.2 0.00 0.18 0.00 68 1010.8
20260831081453 80 23 0.9 4.3 0.00 0.18 0.00 69 1010.8
20260831081448 80 68 0.9 5.2 0.00 0.18 0.00 69 1010.8
20260831080720 80 45 0.9 5.2 0.00 0.18 0.00 70 1010.8
20260831075948 80 113 0.9 6.1 0.00 0.18 0.00 70 1011.1
20260831075446 80 23 1.7 6.1 0.00 0.18 0.00 70 1010.8
20260831074947 80 45 1.7 7.0 0.00 0.18 0.00 70 1011.1
20260831074447 80 68 1.7 7.0 0.00 0.18 0.00 70 1011.1
20260831073946 80 23 0.9 5.2 0.00 0.18 0.00 70 1011.1
20260831073448 80 23 0.9 5.2 0.00 0.18 0.00 70 1010.8
20260831072948 80 0 0.9 5.2 0.00 0.18 0.00 70 1010.5
20260831072448 80 23 0.9 4.3 0.00 0.18 0.00 70 1010.8
20260831071948 80 315 0.9 10.4 0.00 0.18 0.00 70 1010.5
20260831071718 80 0 1.7 10.4 0.00 0.18 0.00 70 1010.0
20260831070946 80 45 1.7 10.4 0.00 0.18 0.00 70 1010.0
20260831070445 80 338 1.7 10.4 0.00 0.18 0.00 71 1010.5
20260831070217 80 293 1.7 7.8 0.00 0.18 0.18 70 1010.5
20260831065446 80 0 1.7 10.4 0.00 0.18 0.18 71 1010.5
20260831064947 80 45 1.7 10.4 0.00 0.18 0.18 71 1010.5
20260831064447 80 23 1.7 7.8 0.00 0.18 0.18 71 1010.5
20260831063947 80 0 1.7 7.8 0.00 0.18 0.18 71 1010.0
20260831063446 80 45 1.7 7.8 0.00 0.18 0.18 70 1010.0
20260831062945 80 0 1.7 7.8 0.00 0.18 0.18 70 1010.0
20260831062445 80 23 1.7 7.8 0.00 0.18 0.18 70 1010.0
20260831061945 80 23 1.7 6.1 0.00 0.18 0.18 70 1009.7
20260831061715 80 338 1.7 9.6 0.00 0.18 0.18 70 1009.7
20260831060944 79 23 1.7 9.6 0.01 0.18 0.18 70 1009.7
20260831060446 79 23 0.9 3.5 0.01 0.18 0.18 71 1009.7
20260831055945 79 23 0.9 4.3 0.01 0.18 0.18 71 1009.0
20260831055716 79 270 0.9 4.3 0.01 0.18 0.18 70 1009.0
20260831054945 79 225 0.9 5.2 0.01 0.18 0.18 71 1009.0
20260831054446 79 225 0.9 6.1 0.01 0.18 0.18 70 1008.7
20260831053945 80 225 1.7 6.1 0.01 0.18 0.18 70 1009.0
20260831053445 80 248 0.9 6.1 0.01 0.18 0.18 70 1009.0
20260831052944 80 180 1.7 8.7 0.01 0.18 0.18 70 1009.0
20260831052444 80 203 1.7 8.7 0.01 0.18 0.18 68 1009.0
20260831051946 80 203 0.9 5.2 0.01 0.18 0.18 70 1009.0
20260831051446 81 158 0.9 6.1 0.02 0.18 0.18 69 1009.0
20260831051217 81 270 1.7 8.7 0.04 0.17 0.17 65 1009.3
20260831050446 80 225 1.7 10.4 0.14 0.17 0.17 65 1008.7
20260831045945 80 113 1.7 10.4 0.17 0.17 0.17 70 1009.3
20260831045444 79 203 2.6 13.9 0.17 0.17 0.17 71 1009.7
20260831044944 79 225 2.6 13.9 0.17 0.17 0.17 75 1009.3
20260831044443 79 180 2.6 10.4 0.17 0.17 0.17 76 1009.7
20260831043943 79 135 2.6 12.2 0.17 0.17 0.17 76 1009.7
20260831043445 79 158 2.6 13.0 0.17 0.17 0.17 78 1009.3
20260831042944 79 180 2.6 13.0 0.17 0.17 0.17 78 1009.0
20260831042715 79 248 2.6 13.0 0.17 0.17 0.17 78 1009.3
20260831042216 80 68 2.6 10.4 0.17 0.17 0.17 78 1008.7
20260831041443 82 203 1.7 13.0 0.16 0.16 0.16 75 1008.7
20260831040942 86 203 3.5 13.0 0.13 0.13 0.14 69 1009.0
20260831040442 91 180 2.6 13.9 0.03 0.03 0.04 59 1009.0
20260831035944 93 203 3.5 15.6 0.00 0.00 0.00 44 1009.0
20260831035442 93 180 3.5 15.6 0.00 0.00 0.00 41 1008.7
20260831034944 94 0 2.6 10.4 0.00 0.00 0.00 40 1009.0
20260831034443 95 203 2.6 13.0 0.00 0.00 0.00 39 1008.7
20260831033943 96 203 3.5 13.0 0.00 0.00 0.00 37 1008.3
20260831033443 97 203 3.5 13.9 0.00 0.00 0.00 37 1008.3
20260831032942 99 270 0.9 13.9 0.00 0.00 0.00 34 1007.6
20260831032443 99 270 0.0 1.7 0.00 0.00 0.00 34 1007.6
20260831031942 99 180 0.0 0.9 0.00 0.00 0.00 34 1007.3
20260831031441 99 270 0.0 1.7 0.00 0.00 0.00 35 1007.6
20260831030942 99 315 0.0 3.5 0.00 0.00 0.00 34 1007.3
20260831030715 99 338 0.0 3.5 0.00 0.00 0.00 34 1006.9
20260831030215 99 270 0.0 2.6 0.00 0.00 0.00 34 1006.9
20260831025444 99 270 0.0 2.6 0.00 0.00 0.00 34 1006.9
20260831024943 99 338 0.0 2.6 0.00 0.00 0.00 34 1006.5
20260831024444 100 315 0.0 3.5 0.00 0.00 0.00 32 1006.5
20260831023943 100 45 0.0 3.5 0.00 0.00 0.00 32 1006.5
20260831023442 100 293 0.0 2.6 0.00 0.00 0.00 34 1006.5
20260831022942 100 270 0.0 2.6 0.00 0.00 0.00 32 1006.5
20260831022713 100 293 0.0 2.6 0.00 0.00 0.00 32 1006.5
20260831021943 100 338 0.0 3.5 0.00 0.00 0.00 32 1006.5
20260831021444 101 90 0.0 3.5 0.00 0.00 0.00 32 1006.5
20260831020944 101 0 0.9 3.5 0.00 0.00 0.00 32 1006.2
20260831015943 101 113 0.0 2.6 0.00 0.00 0.00 31 1005.9
20260831015442 101 270 0.0 2.6 0.00 0.00 0.00 30 1005.9
20260831014943 102 293 0.0 3.5 0.00 0.00 0.00 30 1005.9
20260831014712 102 203 0.0 3.5 0.00 0.00 0.00 30 1005.9
20260831013941 102 203 0.0 4.3 0.00 0.00 0.00 30 1005.9
20260831013443 102 270 0.9 4.3 0.00 0.00 0.00 30 1005.5
20260831012943 103 45 0.0 2.6 0.00 0.00 0.00 30 1005.5
20260831012443 103 45 0.0 2.6 0.00 0.00 0.00 30 1005.5
20260831011943 103 68 0.0 2.6 0.00 0.00 0.00 30 1005.5
20260831011443 103 293 0.0 4.3 0.00 0.00 0.00 30 1005.5
20260831010942 104 45 0.9 4.3 0.00 0.00 0.00 30 1005.5
20260831010442 104 0 0.0 2.6 0.00 0.00 0.00 30 1005.9
20260831005942 104 23 0.0 6.1 0.00 0.00 0.00 30 1005.5
20260831005441 104 315 0.9 6.1 0.00 0.00 0.00 29 1005.5
20260831004942 104 158 0.0 2.6 0.00 0.00 0.00 29 1005.9
20260831004443 105 293 0.0 3.5 0.00 0.00 0.00 29 1005.9
20260831003943 105 135 0.0 3.5 0.00 0.00 0.00 29 1005.9
20260831003443 105 203 0.0 3.5 0.00 0.00 0.00 29 1005.9
20260831002943 105 203 0.9 6.1 0.00 0.00 0.00 29 1005.9
20260831002441 106 270 0.9 6.1 0.00 0.00 0.00 29 1005.5
20260831001942 106 203 0.0 3.5 0.00 0.00 0.00 29 1005.9
20260831001442 106 270 0.9 3.5 0.00 0.00 0.00 27 1005.9
20260831000941 106 225 0.0 3.5 0.00 0.00 0.00 29 1005.9
20260831000712 106 315 0.9 3.5 0.00 0.00 0.00 29 1005.9
20260830235943 106 45 0.0 3.5 0.00 0.00 0.00 29 1005.9
20260830235714 106 338 0.0 5.2 0.00 0.00 0.00 29 1005.9
20260830235214 106 180 0.9 5.2 0.00 0.00 0.00 27 1006.2
20260830234713 106 338 0.9 4.3 0.00 0.00 0.00 27 1005.9
20260830233942 106 203 0.0 3.5 0.00 0.00 0.00 27 1006.2
20260830233442 106 270 0.0 3.5 0.00 0.00 0.00 27 1006.2
20260830232941 107 180 0.9 5.2 0.00 0.00 0.00 27 1006.2
20260830232442 107 225 0.9 5.2 0.00 0.00 0.00 27 1006.2
20260830231941 107 180 0.9 5.2 0.00 0.00 0.00 27 1006.2
20260830231442 107 68 0.9 4.3 0.00 0.00 0.00 29 1006.5
20260830231213 107 68 0.9 4.3 0.00 0.00 0.00 27 1006.5
20260830230443 107 68 0.9 3.5 0.00 0.00 0.00 27 1006.5
20260830225942 107 270 0.0 4.3 0.00 0.00 0.00 27 1006.5
20260830225443 107 135 0.9 6.1 0.00 0.00 0.00 27 1006.9
20260830224941 106 338 0.9 6.1 0.00 0.00 0.00 27 1006.9
20260830224442 106 270 0.9 4.3 0.00 0.00 0.00 29 1006.9
20260830224212 106 90 0.0 2.6 0.00 0.00 0.00 27 1006.9
20260830223441 107 158 0.0 2.6 0.00 0.00 0.00 29 1006.9
20260830222942 106 315 0.0 3.5 0.00 0.00 0.00 27 1007.3
20260830222441 107 270 0.9 4.3 0.00 0.00 0.00 27 1007.6
20260830221942 106 23 0.9 4.3 0.00 0.00 0.00 29 1007.3
20260830221442 106 23 0.9 4.3 0.00 0.00 0.00 29 1007.3
20260830220941 106 45 0.0 4.3 0.00 0.00 0.00 29 1007.6
20260830220440 106 338 0.0 4.3 0.00 0.00 0.00 29 1007.6
20260830215941 106 0 0.0 3.5 0.00 0.00 0.00 30 1007.6
20260830215711 106 315 0.9 3.5 0.00 0.00 0.00 29 1008.0
20260830214940 106 0 0.9 5.2 0.00 0.00 0.00 30 1008.0
20260830214441 106 270 0.9 5.2 0.00 0.00 0.00 27 1008.0
20260830213941 106 225 0.9 4.3 0.00 0.00 0.00 27 1008.3
20260830213442 106 338 0.9 4.3 0.00 0.00 0.00 29 1008.3
20260830212941 105 270 0.9 3.5 0.00 0.00 0.00 30 1008.7
20260830212441 105 248 0.0 3.5 0.00 0.00 0.00 27 1008.7
20260830211940 105 270 0.0 3.5 0.00 0.00 0.00 30 1009.0
20260830211440 105 315 0.0 4.3 0.00 0.00 0.00 30 1009.0
20260830210941 105 45 0.9 5.2 0.00 0.00 0.00 30 1009.0
20260830210710 104 293 0.9 3.5 0.00 0.00 0.00 29 1009.3
20260830205941 104 248 0.9 4.3 0.00 0.00 0.00 30 1009.0
20260830205441 104 270 0.9 4.3 0.00 0.00 0.00 29 1009.3
20260830204941 104 158 0.9 6.1 0.00 0.00 0.00 29 1009.3
20260830204443 104 225 1.7 6.1 0.00 0.00 0.00 30 1009.3
20260830203941 103 248 0.9 6.1 0.00 0.00 0.00 30 1009.7
20260830203441 103 248 0.9 6.1 0.00 0.00 0.00 30 1009.7
20260830202940 103 180 0.9 3.5 0.00 0.00 0.00 30 1009.7
20260830202439 103 180 0.0 2.6 0.00 0.00 0.00 30 1010.0
20260830201939 103 270 0.0 5.2 0.00 0.00 0.00 31 1010.0
20260830201440 103 338 0.9 6.1 0.00 0.00 0.00 30 1010.0
20260830200941 103 203 0.9 5.2 0.00 0.00 0.00 30 1010.5
20260830200440 103 338 0.9 5.2 0.00 0.00 0.00 30 1010.0
20260830195940 103 113 0.0 6.1 0.00 0.00 0.00 30 1010.5
20260830195440 102 180 0.0 6.1 0.00 0.00 0.00 30 1010.5
20260830194943 102 113 0.0 3.5 0.00 0.00 0.00 32 1010.8
20260830194441 101 45 0.0 6.1 0.00 0.00 0.00 31 1010.5
20260830193939 101 0 0.9 6.1 0.00 0.00 0.00 31 1010.5
20260830193439 101 135 0.9 7.0 0.00 0.00 0.00 31 1010.8
20260830192940 101 203 0.9 10.4 0.00 0.00 0.00 31 1010.8
20260830192440 101 180 1.7 10.4 0.00 0.00 0.00 31 1010.8
20260830191940 101 68 0.9 5.2 0.00 0.00 0.00 32 1011.1
20260830191440 101 180 0.0 5.2 0.00 0.00 0.00 34 1010.8
20260830190940 100 180 0.9 5.2 0.00 0.00 0.00 32 1011.1
20260830190439 100 0 0.9 7.8 0.00 0.00 0.00 32 1011.1
20260830185934 100 248 1.7 7.8 0.00 0.00 0.00 34 1011.1
20260830185421 100 135 0.9 7.0 0.00 0.00 0.00 34 1011.5
20260830184920 100 158 1.7 7.8 0.00 0.00 0.00 32 1011.5
20260830184421 100 23 1.7 7.8 0.00 0.00 0.00 32 1011.8
20260830183921 100 90 0.9 7.8 0.00 0.00 0.00 34 1011.8
20260830183421 100 180 1.7 7.8 0.00 0.00 0.00 32 1011.8
20260830182921 101 225 0.9 4.3 0.00 0.00 0.00 34 1011.8
20260830182421 100 225 0.9 7.8 0.00 0.00 0.00 35 1011.8
20260830181920 100 203 1.7 7.8 0.00 0.00 0.00 34 1011.8
20260830181420 101 225 0.9 7.8 0.00 0.00 0.00 35 1011.8
20260830180919 101 113 1.7 7.8 0.00 0.00 0.00 34 1012.1
20260830180421 100 225 1.7 7.8 0.00 0.00 0.00 34 1012.5
20260830175920 100 135 0.9 6.1 0.00 0.00 0.00 34 1012.5
20260830175421 100 203 0.9 6.1 0.00 0.00 0.00 34 1012.5
20260830174920 101 90 0.9 6.1 0.00 0.00 0.00 32 1012.5
20260830174420 101 180 0.9 5.2 0.00 0.00 0.00 34 1012.5
20260830173920 100 158 0.9 6.1 0.00 0.00 0.00 34 1012.5
20260830173419 100 158 0.9 6.1 0.00 0.00 0.00 34 1012.8
20260830172918 100 180 0.9 6.1 0.00 0.00 0.00 35 1012.5
20260830172419 100 158 1.7 6.1 0.00 0.00 0.00 35 1012.8
20260830172151 99 180 0.9 7.0 0.00 0.00 0.00 35 1012.5
20260830171420 99 158 1.7 7.0 0.00 0.00 0.00 35 1012.8
20260830170920 99 113 1.7 7.8 0.00 0.00 0.00 34 1012.5
20260830170420 99 180 1.7 7.8 0.00 0.00 0.00 35 1012.5
20260830170151 98 180 1.7 7.8 0.00 0.00 0.00 35 1012.8
20260830165420 98 180 1.7 7.8 0.00 0.00 0.00 35 1012.5
20260830164918 98 180 1.7 7.0 0.00 0.00 0.00 35 1012.5
20260830164649 98 135 1.7 7.0 0.00 0.00 0.00 35 1012.5
20260830163918 98 203 1.7 8.7 0.00 0.00 0.00 35 1012.5
20260830163649 98 180 1.7 8.7 0.00 0.00 0.00 35 1012.5
20260830162919 97 203 1.7 7.0 0.00 0.00 0.00 37 1012.5
20260830162419 97 180 0.9 6.1 0.00 0.00 0.00 37 1012.5
20260830162150 96 113 0.9 4.3 0.00 0.00 0.00 37 1012.8
20260830161423 96 225 0.0 2.6 0.00 0.00 0.00 39 1012.5
20260830161419 96 90 0.9 3.5 0.00 0.00 0.00 37 1012.8
20260830160418 95 113 0.0 1.7 0.00 0.00 0.00 40 1012.8
20260830155919 94 180 0.0 2.6 0.00 0.00 0.00 40 1012.5
20260830155649 94 338 0.0 3.5 0.00 0.00 0.00 40 1012.1
20260830155636 93 248 0.0 3.5 0.00 0.00 0.00 40 1012.5
20260830154418 93 180 0.9 4.3 0.00 0.00 0.00 40 1012.5
20260830153919 92 113 0.9 4.3 0.00 0.00 0.00 41 1012.5
20260830153650 92 203 0.0 3.5 0.00 0.00 0.00 41 1012.1
20260830152919 92 315 0.0 3.5 0.00 0.00 0.00 43 1012.1
20260830152420 91 158 0.0 2.6 0.00 0.00 0.00 43 1012.1
20260830151919 91 203 0.0 4.3 0.00 0.00 0.00 41 1012.1
20260830151418 91 203 0.9 4.3 0.00 0.00 0.00 43 1012.5
20260830150918 90 90 0.0 3.5 0.00 0.00 0.00 44 1012.5
20260830150416 90 315 0.0 3.5 0.00 0.00 0.00 44 1012.5
20260830145859 90 90 0.9 5.2 0.00 0.00 0.00 44 1012.5
20260830145632 89 158 0.0 5.2 0.00 0.00 0.00 45 1012.5
20260830144901 89 90 0.0 4.3 0.00 0.00 0.00 45 1012.5
20260830144400 88 270 0.0 3.5 0.00 0.00 0.00 45 1012.5
20260830143901 88 0 0.0 2.6 0.00 0.00 0.00 46 1012.5
20260830143401 87 248 0.0 3.5 0.00 0.00 0.00 48 1012.5
20260830143130 87 113 0.0 3.5 0.00 0.00 0.00 46 1012.5
20260830142630 87 338 0.0 3.5 0.00 0.00 0.00 48 1012.5
20260830141900 86 203 0.0 2.6 0.00 0.00 0.00 49 1012.5
20260830141630 86 180 0.0 2.6 0.00 0.00 0.00 49 1012.5
20260830140902 86 158 0.0 2.6 0.00 0.00 0.00 49 1012.1
20260830140401 86 180 0.0 3.5 0.00 0.00 0.00 49 1012.5